Find Starlink 35070

NORAD ID: 65680 Int'l Des: 2025-212 Owner: SPXS Country: US Constellation: starlink operational
LEOCIRCULAR

当前视图

正在加载3D地球...

About Starlink 35070

Starlink 35070 (NORAD 65680) is a starlink constellation satellite (v2 mini) launched Sep 21, 2025 by SPXS of US. It operates in LEO, CIRCULAR orbit with a mass of 575.00 kg.

即将过境

Passes for default location (London). Set your location on the main map for personalized predictions.

高度历史

Loading altitude history...

两行轨道根数

1 65680U 25212E 26262.45624574 .00011838 00000-0 39257-3 0 9992
2 65680 53.1602 164.6833 0000164 137.0599 223.0415 15.31704350 56928
Epoch: Sep 19, 2026 • Age: 45 hours

当前状态

高度 486.5 km
远地点 / 近地点 N/A
速度 7.62 km/s
星下点 -46.51°S, 17.28°W
发射日期 Sep 21, 2025
运行时间 0.9 years
类型 internet

技术详情

分类 Payload
质量 575.00 kg
干质量 530.00 kg
长度 0.30 m
跨度 29.00 m
形状 ? Box + pan
制造商 SPXS
平台类型 Starlink V2MO
阶段状态 In Orbit
所有者/国家 SPXS/US

Most Searched